Weather History for KANB - March, 2013

Change the Weather History Date:

Sunday, March 3, 2013

  Actual Average Record
Temperature  
Mean Temperature 38 °F 51 °F  
Max Temperature 45 °F 63 °F 81 °F (1951)
Min Temperature 31 °F 40 °F 13 °F (1980)
Degree Days  
Heating Degree Days 27    
Month to date heating degree days 52  
Since 1 July heating degree days 2115  
Moisture  
Dew Point 20 °F    
Average Humidity 50    
Maximum Humidity 72    
Minimum Humidity 27    
Precipitation  
Precipitation T in 0.17 in 4.79 in (1979)
Month to date precipitation T 0.53  
Year to date precipitation 13.95 10.13  
Sea Level Pressure  
Sea Level Pressure 30.14 in    
Wind  
Wind Speed 6 mph (NW)    
Max Wind Speed 10 mph    
Max Gust Speed 20 mph    
Visibility 10 miles    
Events      
T = Trace of Precipitation, MM = Missing Value Source: NWS Daily Summary

Daily Weather History Graph

Daily Weather History Graph

Search for Another Location

Airport or City:

Trip Planner

Search our weather history database for the weather conditions in past years. The results will help you decide how hot, cold, wet, or windy it might be!

Date:

Astronomy

Mar. 03, 2013 Rise Set
Actual Time 6:09 AM CST 5:41 PM CST
Civil Twilight 5:44 AM CST 6:06 PM CST
Nautical Twilight 5:15 AM CST 6:35 PM CST
Astronomical Twilight 4:46 AM CST 7:04 PM CST
Moon No Moon Rise 9:42 AM CST
Length of Visible Light 12h 22m
Length of Day
11h 32m
Waning Gibbous, 63% of the Moon is Illuminated
Mar 3
Waning Gibbous
Mar 4
Last Quarter
Mar 11
New
Mar 19
First Quarter
Mar 27
Full

Hourly Weather History & Observations

Time (CST) Temp. Windchill Dew Point Humidity Pressure Visibility Wind Dir Wind Speed Gust Speed Precip Events Conditions
12:46 AM 33.8 °F 27.0 °F 24.8 °F 70% 30.11 in 9.0 mi NNW 8.1 mph 17.3 mph 0.00 in   Overcast
12:53 AM 33.1 °F 26.9 °F 25.0 °F 72% 30.14 in 10.0 mi NNW 6.9 mph - 0.00 in   Overcast
1:53 AM 33.1 °F 26.1 °F 24.1 °F 70% 30.14 in 10.0 mi NW 8.1 mph - N/A   Overcast
2:53 AM 32.0 °F 28.7 °F 23.0 °F 69% 30.13 in 10.0 mi NW 3.5 mph - N/A   Overcast
3:26 AM 32.0 °F 25.6 °F 24.8 °F 75% 30.09 in 8.0 mi WNW 6.9 mph - N/A   Overcast
3:38 AM 32.0 °F - 24.8 °F 75% 30.09 in 9.0 mi Calm Calm - N/A   Overcast
3:53 AM 32.0 °F 26.4 °F 24.1 °F 73% 30.13 in 10.0 mi NW 5.8 mph - N/A   Overcast
4:53 AM 32.0 °F 26.4 °F 21.9 °F 66% 30.13 in 10.0 mi WNW 5.8 mph - N/A   Overcast
5:53 AM 30.9 °F 25.2 °F 21.0 °F 67% 30.14 in 10.0 mi West 5.8 mph - N/A   Overcast
6:53 AM 30.9 °F 24.3 °F 21.9 °F 69% 30.15 in 10.0 mi WNW 6.9 mph - N/A   Overcast
7:53 AM 32.0 °F 25.6 °F 21.9 °F 66% 30.17 in 9.0 mi NW 6.9 mph - N/A   Overcast
8:53 AM 32.0 °F 26.4 °F 21.9 °F 66% 30.18 in 10.0 mi NW 5.8 mph - N/A   Overcast
9:53 AM 34.0 °F 27.2 °F 19.0 °F 54% 30.18 in 10.0 mi NW 8.1 mph - N/A   Overcast
10:53 AM 35.1 °F 27.9 °F 18.0 °F 50% 30.19 in 10.0 mi WNW 9.2 mph 18.4 mph N/A   Overcast
11:53 AM 37.9 °F 32.1 °F 18.0 °F 45% 30.17 in 10.0 mi WNW 8.1 mph - N/A   Mostly Cloudy
12:53 PM 41.0 °F 34.7 °F 17.1 °F 38% 30.14 in 10.0 mi NW 10.4 mph 19.6 mph N/A   Clear
1:53 PM 44.1 °F 40.8 °F 16.0 °F 32% 30.12 in 10.0 mi Variable 5.8 mph - N/A   Clear
2:53 PM 44.1 °F 40.1 °F 14.0 °F 30% 30.11 in 10.0 mi Variable 6.9 mph 17.3 mph N/A   Clear
3:53 PM 45.0 °F 39.7 °F 12.9 °F 27% 30.12 in 10.0 mi WNW 10.4 mph 17.3 mph N/A   Clear
4:53 PM 44.1 °F 39.5 °F 12.9 °F 28% 30.13 in 10.0 mi NW 8.1 mph - N/A   Clear
5:53 PM 42.1 °F 39.2 °F 12.9 °F 31% 30.13 in 10.0 mi NW 4.6 mph - N/A   Clear
6:53 PM 36.0 °F - 17.1 °F 46% 30.15 in 10.0 mi Calm Calm - N/A   Clear
8:53 PM 30.9 °F - 23.0 °F 72% 30.16 in 10.0 mi Calm Calm - N/A   Clear
9:53 PM 28.9 °F 25.2 °F 21.9 °F 75% 30.17 in 10.0 mi WSW 3.5 mph - N/A   Clear
10:53 PM 28.0 °F - 23.0 °F 81% 30.15 in 10.0 mi Calm Calm - N/A   Clear
11:53 PM 28.0 °F - 21.9 °F 78% 30.16 in 10.0 mi Calm Calm - N/A   Clear